CZ-6A DEB

Satellite information

Favourite Embed

Satellite Type and Status

DEBRISIN ORBIT

Key statistics

Satellite CZ-6A DEB at a glance.

Uptime

1129

Days in orbit

Revolutions

≈ 14.2

Per day

Orbit

SSO

Sun Synchronous Orbit

Inclination

98.9

Latest

Satellite identification and parameters

Extended collection of information and parameters for CZ-6A DEB.

Object identification

Identified? True

Debris? True

Object name: CZ-6A DEB

International designator: 2022-151JJ

Object number (NORAD): 54506

Object ID (CCSDS): 54506

Country: PEOPLES REPUBLIC OF CHINA (PRC)

Current information (Y/N): Y

RCS size: SMALL

Orbital parameters

Period: 101.363 minutes

Inclination: 98.8972 deg

SMA: 7201.325 km

Apoapsis: 895.776 km

Periapsis: 750.603 km

RAAN: 10.0991 deg

Eccentricy: 0.0100796

Argument of periapsis: 39.9621 deg

Mean anomaly: 320.8918 deg

Mean motion: 14.20640397 rev/day

Mean motion (dot): 0.00003774 rev/day2

B* drag term: 0.0016845 1/REarth

Two-line elements (TLE)

Creation date: Dec. 12, 2025, 7:16 a.m.

Reference frame: TEME

Reference center: EARTH

Epoch: Dec. 12, 2025, 12:08 a.m. UTC

TLE line 0: 0 CZ-6A DEB

TLE line 1: 1 54506U 22151JJ 25346.00623000 .00003774 00000-0 16845-2 0 9999

TLE line 2: 2 54506 98.8972 10.0991 0100796 39.9621 320.8918 14.20640397159088

Live tracking on map

Real-time ground track for satellite CZ-6A DEB.

In-orbit conjunctions

A list of the most updated potential collisions computed for object CZ-6A DEB.

Target Orbit TCA Probability of collision Miss distance Type
CZ-2D R/B SSO 2025-11-21 04:13:54 0.0001087587 468.0 (m) ROCKET BODY
FENGYUN 1C DEB SSO 2025-09-14 16:50:21 0.0001821898 209.0 (m) DEBRIS
COSMOS 1275 DEB LEO 2025-09-11 10:40:00 0.00012149 82.0 (m) DEBRIS
FENGYUN 1C DEB SSO 2025-08-01 21:22:05 0.0002449544 130.0 (m) DEBRIS
CZ-6A DEB LEO 2025-06-13 07:22:32 0.0002183135 221.0 (m) DEBRIS

Associated space launch

Chinese satellite reported for atmospheric/ocean/environmental/spatial parameter research purposes, details TBD.

CZ-6A DEB was lifted into orbit during the mission ‘Long March 6A | Yunhai 3’, on board a Long March 6A space rocket.

The launch took place on Nov. 11, 2022, 10:52 p.m. from Launch Complex 9A.

For more information about the launch, click the button.

Launch to space Long March 6A | Yunhai 3
Long March 6A | Yunhai 3

Agency: N/A

Status: Launch Successful

Launch date: Nov. 11, 2022, 10:52 p.m. UTC

Rocket: Long March 6A

Launch pad: Launch Complex 9A

Location: Taiyuan Satellite Launch Center, People's Republic of China

...

Latest news about this satellite

There are no fresh news available about this satellite. Check back as we update our databases every day.


Newsletter sign-up

Weekly statistics, charts and insights to help you stay on top of the space industry.